Tiempo cada hora Dabrowka

Hoy, 27 Noviembre, Viernes

Tiempo Temperatura Precipitaciones Viento Presión Humedad
00:00 +1°C° 0 mm 3 mps 738 mmHg 74%
01:00 +1°C° 0 mm 3 mps 738 mmHg 73%
02:00 +1°C° 0 mm 3 mps 738 mmHg 74%
03:00 +1°C° 0 mm 3 mps 738 mmHg 75%
04:00 +1°C° 0 mm 3 mps 738 mmHg 77%
05:00 +1°C° 0.1 mm 3 mps 738 mmHg 79%
06:00 +1°C° 0.1 mm 3 mps 738 mmHg 82%
07:00 +1°C° 0.1 mm 3 mps 738 mmHg 85%
08:00 +1°C° 0 mm 3 mps 738 mmHg 85%
09:00 +1°C° 0 mm 3 mps 738 mmHg 85%
10:00 +2°C° 0 mm 3 mps 738 mmHg 85%
11:00 +2°C° 0 mm 3 mps 738 mmHg 86%
12:00 +3°C° 0 mm 3 mps 738 mmHg 86%
13:00 +3°C° 0 mm 3 mps 738 mmHg 86%
14:00 +3°C° 0 mm 3 mps 738 mmHg 86%
15:00 +3°C° 0 mm 3 mps 738 mmHg 87%
16:00 +3°C° 0 mm 3 mps 738 mmHg 87%
17:00 +3°C° 0 mm 3 mps 738 mmHg 86%
18:00 +3°C° 0 mm 2 mps 738 mmHg 86%
19:00 +3°C° 0 mm 2 mps 738 mmHg 85%
20:00 +3°C° 0 mm 2 mps 738 mmHg 84%
21:00 +3°C° 0 mm 2 mps 738 mmHg 84%
22:00 +3°C° 0 mm 2 mps 738 mmHg 83%
23:00 +2°C° 0 mm 3 mps 738 mmHg 82%

Mañana, 28 Noviembre, Sábado

Tiempo Temperatura Precipitaciones Viento Presión Humedad
00:00 +2°C° 0 mm 3 mps 738 mmHg 82%
01:00 +2°C° 0 mm 3 mps 738 mmHg 82%
02:00 +2°C° 0 mm 3 mps 737 mmHg 81%
03:00 +2°C° 0 mm 3 mps 737 mmHg 81%
04:00 +2°C° 0 mm 3 mps 737 mmHg 80%
05:00 +2°C° 0.1 mm 3 mps 737 mmHg 83%
06:00 +1°C° 0.1 mm 3 mps 737 mmHg 86%
07:00 +1°C° 0.1 mm 3 mps 737 mmHg 89%
08:00 +1°C° 0.1 mm 3 mps 737 mmHg 85%
09:00 0°C° 0.1 mm 4 mps 737 mmHg 80%
10:00 +1°C° 0.1 mm 4 mps 737 mmHg 76%
11:00 0°C° 0.1 mm 4 mps 737 mmHg 79%
12:00 0°C° 0.1 mm 4 mps 737 mmHg 83%
13:00 0°C° 0.1 mm 4 mps 737 mmHg 86%
14:00 -1°C° 0.1 mm 4 mps 737 mmHg 82%
15:00 -1°C° 0.1 mm 4 mps 737 mmHg 78%
16:00 -1°C° 0.1 mm 3 mps 737 mmHg 74%
17:00 -1°C° 0 mm 3 mps 737 mmHg 75%
18:00 -1°C° 0 mm 3 mps 738 mmHg 75%
19:00 -1°C° 0 mm 3 mps 738 mmHg 75%
20:00 -1°C° 0 mm 3 mps 738 mmHg 78%
21:00 -2°C° 0 mm 3 mps 738 mmHg 81%
22:00 -2°C° 0 mm 2 mps 738 mmHg 84%
23:00 -2°C° 0.1 mm 2 mps 738 mmHg 88%

Pasado mañana, 29 Noviembre, Domingo

Tiempo Temperatura Precipitaciones Viento Presión Humedad
00:00 -2°C° 0.1 mm 2 mps 738 mmHg 91%
01:00 -2°C° 0.1 mm 2 mps 738 mmHg 94%
02:00 -2°C° 0.3 mm 2 mps 738 mmHg 94%
03:00 -2°C° 0.3 mm 2 mps 737 mmHg 95%
04:00 -2°C° 0.3 mm 2 mps 737 mmHg 95%
05:00 -2°C° 0.2 mm 2 mps 737 mmHg 96%
06:00 -2°C° 0.2 mm 2 mps 737 mmHg 96%
07:00 0°C° 0.2 mm 1 mps 737 mmHg 96%
08:00 -2°C° 0 mm 2 mps 737 mmHg 93%
09:00 -2°C° 0 mm 2 mps 737 mmHg 90%
10:00 -1°C° 0 mm 2 mps 737 mmHg 87%
11:00 -1°C° 0 mm 2 mps 737 mmHg 86%
12:00 -1°C° 0 mm 2 mps 737 mmHg 84%
13:00 -1°C° 0 mm 2 mps 737 mmHg 83%
14:00 -1°C° 0.1 mm 2 mps 737 mmHg 86%
15:00 -2°C° 0.1 mm 2 mps 737 mmHg 90%
16:00 -2°C° 0.1 mm 2 mps 737 mmHg 93%
17:00 -2°C° 0 mm 2 mps 737 mmHg 94%
18:00 -2°C° 0 mm 2 mps 737 mmHg 94%
19:00 -2°C° 0 mm 2 mps 738 mmHg 95%
20:00 -2°C° 0.1 mm 2 mps 738 mmHg 95%
21:00 -2°C° 0.1 mm 2 mps 738 mmHg 95%
22:00 -1°C° 0.1 mm 1 mps 738 mmHg 96%
23:00 -1°C° 0 mm 1 mps 739 mmHg 96%

30 Noviembre, Lunes

Tiempo Temperatura Precipitaciones Viento Presión Humedad
00:00 -1°C° 0 mm 1 mps 739 mmHg 96%
01:00 -1°C° 0 mm 1 mps 739 mmHg 96%
02:00 -2°C° 0 mm 1 mps 739 mmHg 95%
03:00 -2°C° 0 mm 1 mps 740 mmHg 94%
04:00 -2°C° 0 mm 1 mps 740 mmHg 93%
05:00 -2°C° 0 mm 1 mps 740 mmHg 92%
06:00 -2°C° 0 mm 1 mps 741 mmHg 92%
07:00 -2°C° 0 mm 1 mps 742 mmHg 91%
08:00 -1°C° 0 mm 1 mps 742 mmHg 87%
09:00 -1°C° 0 mm 1 mps 742 mmHg 83%
10:00 0°C° 0 mm 1 mps 743 mmHg 79%
11:00 0°C° 0 mm 1 mps 743 mmHg 77%
12:00 -2°C° 0 mm 2 mps 743 mmHg 74%
13:00 -1°C° 0 mm 2 mps 743 mmHg 72%
14:00 -2°C° 0 mm 2 mps 743 mmHg 74%
15:00 -2°C° 0 mm 2 mps 743 mmHg 75%
16:00 -2°C° 0 mm 2 mps 744 mmHg 77%
17:00 -2°C° 0 mm 2 mps 744 mmHg 76%
18:00 -2°C° 0 mm 2 mps 744 mmHg 76%
19:00 0°C° 0 mm 1 mps 745 mmHg 75%
20:00 0°C° 0 mm 1 mps 745 mmHg 75%
21:00 0°C° 0 mm 1 mps 745 mmHg 75%
22:00 0°C° 0 mm 1 mps 745 mmHg 74%
23:00 0°C° 0 mm 1 mps 745 mmHg 74%

1 Diciembre, Martes

Tiempo Temperatura Precipitaciones Viento Presión Humedad
00:00 0°C° 0 mm 1 mps 745 mmHg 74%
01:00 0°C° 0 mm 1 mps 745 mmHg 74%
02:00 0°C° 0 mm 1 mps 745 mmHg 75%
03:00 0°C° 0 mm 1 mps 745 mmHg 75%
04:00 0°C° 0 mm 1 mps 745 mmHg 75%
05:00 0°C° 0 mm 1 mps 745 mmHg 76%
06:00 -3°C° 0 mm 2 mps 745 mmHg 78%
07:00 -3°C° 0 mm 2 mps 745 mmHg 79%
08:00 -3°C° 0 mm 2 mps 744 mmHg 78%
09:00 -2°C° 0 mm 2 mps 744 mmHg 76%
10:00 -2°C° 0 mm 2 mps 744 mmHg 74%
11:00 -2°C° 0 mm 2 mps 744 mmHg 73%
12:00 -1°C° 0 mm 2 mps 743 mmHg 72%
13:00 -1°C° 0 mm 2 mps 743 mmHg 71%
14:00 -2°C° 0 mm 2 mps 743 mmHg 74%
15:00 -2°C° 0 mm 2 mps 742 mmHg 77%
16:00 -3°C° 0 mm 2 mps 742 mmHg 80%
17:00 -3°C° 0 mm 2 mps 742 mmHg 81%
18:00 -3°C° 0 mm 2 mps 742 mmHg 81%
19:00 -3°C° 0 mm 2 mps 742 mmHg 82%
20:00 -3°C° 0 mm 2 mps 742 mmHg 81%
21:00 -4°C° 0 mm 3 mps 741 mmHg 80%
22:00 -2°C° 0 mm 3 mps 741 mmHg 79%
23:00 -2°C° 0.1 mm 3 mps 741 mmHg 83%

2 Diciembre, Miércoles

Tiempo Temperatura Precipitaciones Viento Presión Humedad
00:00 -2°C° 0.1 mm 3 mps 740 mmHg 86%
01:00 -2°C° 0.1 mm 3 mps 740 mmHg 90%
02:00 -2°C° 0.4 mm 3 mps 740 mmHg 92%
03:00 -2°C° 0.4 mm 3 mps 740 mmHg 94%
04:00 -1°C° 0.4 mm 3 mps 739 mmHg 96%
05:00 -1°C° 0.3 mm 3 mps 739 mmHg 96%
06:00 -1°C° 0.3 mm 2 mps 739 mmHg 96%
07:00 -1°C° 0.3 mm 2 mps 739 mmHg 96%
08:00 +1°C° 0 mm 1 mps 739 mmHg 97%
09:00 +2°C° 0 mm 1 mps 739 mmHg 97%
10:00 +1°C° 0 mm 0 mps 739 mmHg 97%
11:00 +1°C° 0 mm 0 mps 739 mmHg 97%
12:00 +1°C° 0 mm 0 mps 739 mmHg 97%
13:00 +1°C° 0 mm 0 mps 739 mmHg 97%
14:00 +2°C° 0 mm 1 mps 739 mmHg 97%
15:00 +2°C° 0 mm 1 mps 739 mmHg 97%
16:00 +1°C° 0 mm 1 mps 739 mmHg 96%
17:00 -1°C° 0 mm 2 mps 739 mmHg 96%
18:00 -1°C° 0 mm 2 mps 740 mmHg 96%
19:00 -1°C° 0 mm 2 mps 740 mmHg 95%
20:00 -1°C° 0 mm 2 mps 740 mmHg 94%
21:00 -1°C° 0 mm 2 mps 740 mmHg 93%
22:00 -1°C° 0 mm 2 mps 740 mmHg 92%
23:00 -2°C° 0 mm 2 mps 741 mmHg 91%
Mostrar más

Necesitamos Su Consentimiento

Meteoprog y nuestros Proveedores de Servicios pueden almacenar y acceder a sus datos personales como cookies, identificadores de dispositivo u otras tecnologías similares de su dispositivo y procesar dichos datos para personalizar contenido y anuncios, además de ofrecer funciones de redes sociales y analizar el tráfico.

  • Almacenar y/o acceder a información en su dispositivo

    Se puede almacenar o acceder a cookies, identificadores de dispositivo u otra información de su dispositivo para los fines anteriormente indicados.

  • Anuncios y contenido personalizados, medición de anuncios y contenido, percepciones del público, y desarrollo de productos

    Los anuncios y el contenido pueden personalizarse en base a su perfil. Se pueden añadir más datos para personalizar mejor los anuncios y contenidos. Se puede medir el rendimiento de los anuncios y contenidos. Se puede obtener la percepción sobre el público que ha visto los anuncios y contenidos. Dichos datos pueden usarse para desarrollar o mejorar la experiencia del usuario, sistemas y software.

Al hacer clic en ‘Estoy De Acuerdo’ usted permitirá el uso de las cookies, identificadores de dispositivo, balizas web u otras tecnologías similares indicadas. Su configuración puede cambiarse desde el navegador de su dispositivo.

Para ciertos fines, los intereses legítimos pueden ser considerados por encima del consentimiento. Puede leer más sobre ello en nuestra Política de Privacidad y Cookies.